• In Portugal
  • List of Countries
  • For 7 days
  • Water Temperature
  • Satellite Maps
  • Weather Map
  • Weather Widgets
  • user-avatar
    Login

    Hourly Weather Al-Chums

    Today, 17 August, Friday

    Time Temperature Precipitation Wind Pressure Humidity
    00:00 +26°C° 0 mm 3 mps 714 mmHg 73%
    01:00 +26°C° 0 mm 3 mps 714 mmHg 74%
    02:00 +25°C° 0 mm 2 mps 713 mmHg 76%
    03:00 +24°C° 0 mm 2 mps 714 mmHg 77%
    04:00 +24°C° 0 mm 3 mps 714 mmHg 78%
    05:00 +24°C° 0 mm 3 mps 714 mmHg 80%
    06:00 +26°C° 0 mm 3 mps 714 mmHg 68%
    07:00 +27°C° 0 mm 4 mps 714 mmHg 57%
    08:00 +29°C° 0 mm 4 mps 715 mmHg 46%
    09:00 +32°C° 0 mm 5 mps 715 mmHg 40%
    10:00 +34°C° 0 mm 5 mps 715 mmHg 34%
    11:00 +35°C° 0 mm 6 mps 715 mmHg 28%
    12:00 +36°C° 0 mm 6 mps 714 mmHg 29%
    13:00 +36°C° 0 mm 7 mps 714 mmHg 29%
    14:00 +36°C° 0 mm 7 mps 714 mmHg 29%
    15:00 +35°C° 0 mm 7 mps 714 mmHg 33%
    16:00 +34°C° 0 mm 7 mps 713 mmHg 37%
    17:00 +33°C° 0 mm 7 mps 713 mmHg 40%
    18:00 +30°C° 0 mm 6 mps 713 mmHg 46%
    19:00 +29°C° 0 mm 6 mps 713 mmHg 53%
    20:00 +27°C° 0 mm 5 mps 713 mmHg 59%
    21:00 +27°C° 0 mm 5 mps 713 mmHg 60%
    22:00 +26°C° 0 mm 4 mps 713 mmHg 61%
    23:00 +26°C° 0 mm 4 mps 713 mmHg 63%

    Tomorrow, 18 August, Saturday

    Time Temperature Precipitation Wind Pressure Humidity
    00:00 +25°C° 0 mm 4 mps 713 mmHg 64%
    01:00 +25°C° 0 mm 4 mps 712 mmHg 64%
    02:00 +24°C° 0 mm 3 mps 712 mmHg 65%
    03:00 +24°C° 0 mm 3 mps 712 mmHg 65%
    04:00 +24°C° 0 mm 3 mps 712 mmHg 65%
    05:00 +22°C° 0 mm 3 mps 712 mmHg 65%
    06:00 +25°C° 0 mm 4 mps 712 mmHg 58%
    07:00 +27°C° 0 mm 5 mps 713 mmHg 51%
    08:00 +29°C° 0 mm 6 mps 713 mmHg 44%
    09:00 +32°C° 0 mm 6 mps 713 mmHg 41%
    10:00 +33°C° 0 mm 7 mps 713 mmHg 37%
    11:00 +35°C° 0 mm 8 mps 713 mmHg 34%
    12:00 +35°C° 0 mm 8 mps 713 mmHg 34%
    13:00 +35°C° 0 mm 8 mps 712 mmHg 34%
    14:00 +35°C° 0 mm 9 mps 712 mmHg 34%
    15:00 +34°C° 0 mm 8 mps 712 mmHg 39%
    16:00 +33°C° 0 mm 8 mps 711 mmHg 43%
    17:00 +32°C° 0 mm 8 mps 711 mmHg 47%
    18:00 +29°C° 0 mm 7 mps 711 mmHg 53%
    19:00 +28°C° 0 mm 6 mps 711 mmHg 59%
    20:00 +27°C° 0 mm 6 mps 712 mmHg 65%
    21:00 +26°C° 0 mm 5 mps 712 mmHg 67%
    22:00 +26°C° 0 mm 5 mps 712 mmHg 69%
    23:00 +25°C° 0 mm 4 mps 712 mmHg 71%

    Day after tomorrow, 19 August, Sunday

    Time Temperature Precipitation Wind Pressure Humidity
    00:00 +25°C° 0 mm 4 mps 711 mmHg 73%
    01:00 +25°C° 0 mm 4 mps 711 mmHg 75%
    02:00 +23°C° 0 mm 4 mps 711 mmHg 77%
    03:00 +23°C° 0 mm 4 mps 711 mmHg 77%
    04:00 +23°C° 0 mm 4 mps 711 mmHg 78%
    05:00 +22°C° 0 mm 4 mps 711 mmHg 78%
    06:00 +25°C° 0 mm 4 mps 711 mmHg 69%
    07:00 +27°C° 0 mm 5 mps 711 mmHg 60%
    08:00 +28°C° 0 mm 5 mps 712 mmHg 51%
    09:00 +30°C° 0 mm 5 mps 712 mmHg 47%
    10:00 +32°C° 0 mm 6 mps 712 mmHg 43%
    11:00 +34°C° 0 mm 6 mps 712 mmHg 39%
    12:00 +34°C° 0 mm 6 mps 712 mmHg 39%
    13:00 +34°C° 0 mm 6 mps 711 mmHg 40%
    14:00 +34°C° 0 mm 7 mps 711 mmHg 41%
    15:00 +34°C° 0 mm 6 mps 711 mmHg 45%
    16:00 +33°C° 0 mm 6 mps 711 mmHg 50%
    17:00 +32°C° 0 mm 6 mps 710 mmHg 54%
    18:00 +29°C° 0 mm 5 mps 711 mmHg 59%
    19:00 +28°C° 0 mm 5 mps 711 mmHg 65%
    20:00 +27°C° 0 mm 4 mps 711 mmHg 71%
    21:00 +27°C° 0 mm 3 mps 711 mmHg 72%
    22:00 +26°C° 0 mm 3 mps 711 mmHg 74%
    23:00 +26°C° 0 mm 3 mps 711 mmHg 75%

    20 August, Monday

    Time Temperature Precipitation Wind Pressure Humidity
    00:00 +26°C° 0 mm 2 mps 711 mmHg 77%
    01:00 +25°C° 0 mm 2 mps 711 mmHg 79%
    02:00 +25°C° 0 mm 2 mps 711 mmHg 81%
    03:00 +24°C° 0 mm 2 mps 711 mmHg 82%
    04:00 +24°C° 0 mm 2 mps 711 mmHg 83%
    05:00 +24°C° 0 mm 2 mps 711 mmHg 84%
    06:00 +25°C° 0 mm 2 mps 711 mmHg 75%
    07:00 +27°C° 0 mm 2 mps 712 mmHg 66%
    08:00 +29°C° 0 mm 3 mps 712 mmHg 56%
    09:00 +30°C° 0 mm 3 mps 713 mmHg 51%
    10:00 +33°C° 0 mm 3 mps 713 mmHg 45%
    11:00 +34°C° 0 mm 3 mps 713 mmHg 39%
    12:00 +35°C° 0 mm 4 mps 713 mmHg 38%
    13:00 +35°C° 0 mm 4 mps 713 mmHg 37%
    14:00 +36°C° 0 mm 5 mps 712 mmHg 37%
    15:00 +35°C° 0 mm 5 mps 712 mmHg 40%
    16:00 +35°C° 0 mm 5 mps 712 mmHg 42%
    17:00 +34°C° 0 mm 5 mps 712 mmHg 45%
    18:00 +33°C° 0 mm 4 mps 713 mmHg 51%
    19:00 +30°C° 0 mm 4 mps 713 mmHg 57%
    20:00 +29°C° 0 mm 3 mps 713 mmHg 63%
    21:00 +28°C° 0 mm 3 mps 713 mmHg 65%
    22:00 +28°C° 0 mm 2 mps 713 mmHg 67%
    23:00 +27°C° 0 mm 2 mps 713 mmHg 68%

    21 August, Tuesday

    Time Temperature Precipitation Wind Pressure Humidity
    00:00 +27°C° 0 mm 2 mps 713 mmHg 70%
    01:00 +27°C° 0 mm 2 mps 713 mmHg 72%
    02:00 +26°C° 0 mm 2 mps 713 mmHg 75%
    03:00 +26°C° 0 mm 2 mps 713 mmHg 77%
    04:00 +25°C° 0 mm 2 mps 713 mmHg 79%
    05:00 +25°C° 0 mm 2 mps 713 mmHg 81%
    06:00 +26°C° 0 mm 2 mps 714 mmHg 72%
    07:00 +28°C° 0 mm 2 mps 714 mmHg 63%
    08:00 +29°C° 0 mm 3 mps 715 mmHg 55%
    09:00 +31°C° 0 mm 3 mps 715 mmHg 48%
    10:00 +34°C° 0 mm 3 mps 715 mmHg 42%
    11:00 +35°C° 0 mm 4 mps 715 mmHg 35%
    12:00 +36°C° 0 mm 4 mps 715 mmHg 35%
    13:00 +36°C° 0 mm 5 mps 714 mmHg 34%
    14:00 +36°C° 0 mm 5 mps 714 mmHg 34%
    15:00 +36°C° 0 mm 5 mps 714 mmHg 37%
    16:00 +35°C° 0 mm 5 mps 714 mmHg 40%
    17:00 +34°C° 0 mm 5 mps 714 mmHg 43%
    18:00 +33°C° 0 mm 5 mps 714 mmHg 49%
    19:00 +30°C° 0 mm 4 mps 714 mmHg 55%
    20:00 +29°C° 0 mm 3 mps 714 mmHg 62%
    21:00 +28°C° 0 mm 3 mps 714 mmHg 64%
    22:00 +28°C° 0 mm 3 mps 714 mmHg 67%
    23:00 +27°C° 0 mm 3 mps 714 mmHg 69%

    22 August, Wednesday

    Time Temperature Precipitation Wind Pressure Humidity
    00:00 +27°C° 0 mm 3 mps 714 mmHg 72%
    01:00 +26°C° 0 mm 3 mps 714 mmHg 75%
    02:00 +26°C° 0 mm 2 mps 714 mmHg 78%
    03:00 +25°C° 0 mm 2 mps 714 mmHg 80%
    04:00 +25°C° 0 mm 2 mps 714 mmHg 81%
    05:00 +25°C° 0 mm 2 mps 714 mmHg 83%
    06:00 +26°C° 0 mm 3 mps 714 mmHg 71%
    07:00 +28°C° 0 mm 3 mps 714 mmHg 59%
    08:00 +30°C° 0 mm 4 mps 715 mmHg 47%
    09:00 +33°C° 0 mm 4 mps 715 mmHg 42%
    10:00 +34°C° 0 mm 4 mps 715 mmHg 37%
    11:00 +36°C° 0 mm 5 mps 715 mmHg 31%
    12:00 +36°C° 0 mm 5 mps 714 mmHg 32%
    13:00 +36°C° 0 mm 6 mps 714 mmHg 32%
    14:00 +38°C° 0 mm 6 mps 714 mmHg 32%
    15:00 +36°C° 0 mm 6 mps 714 mmHg 36%
    16:00 +35°C° 0 mm 6 mps 713 mmHg 40%
    17:00 +34°C° 0 mm 6 mps 713 mmHg 44%
    18:00 +32°C° 0 mm 5 mps 713 mmHg 51%
    19:00 +30°C° 0 mm 5 mps 714 mmHg 57%
    20:00 +28°C° 0 mm 4 mps 714 mmHg 64%
    21:00 +28°C° 0 mm 4 mps 714 mmHg 67%
    22:00 +27°C° 0 mm 3 mps 714 mmHg 69%
    23:00 +27°C° 0 mm 3 mps 714 mmHg 72%
    Show more